Time,TemperatureF,DewpointF,PressureIn,WindDirection,WindDirectionDegrees,WindSpeedMPH,WindSpeedGustMPH,Humidity,HourlyPrecipIn,Conditions,Clouds,dailyrainin,SolarRadiationWatts/m^2,SoftwareType,DateUTC
2013-04-08 00:00:00,43.9,38.5,30.01,SSW,213,0.0,3.0,81,0.00,,CLR,0.00,0.00,VWS V14.01,2013-04-08 04:00:00,
2013-04-08 00:05:00,43.8,38.4,30.00,SSW,213,2.0,4.0,81,0.00,,CLR,0.00,0.00,VWS V14.01,2013-04-08 04:05:00,
2013-04-08 00:10:00,43.6,38.2,30.00,SSW,203,0.0,4.0,81,0.00,,CLR,0.00,0.00,VWS V14.01,2013-04-08 04:10:00,
2013-04-08 00:15:00,43.6,38.5,30.00,SSW,202,0.0,3.0,82,0.00,,CLR,0.00,0.00,VWS V14.01,2013-04-08 04:15:00,
2013-04-08 00:20:00,43.6,38.5,30.00,WSW,249,1.0,3.0,82,0.00,,CLR,0.00,0.00,VWS V14.01,2013-04-08 04:20:00,
2013-04-08 00:25:00,43.5,38.4,30.01,WSW,249,0.0,2.0,82,0.00,,CLR,0.00,0.00,VWS V14.01,2013-04-08 04:25:00,
2013-04-08 00:30:00,43.4,38.3,30.00,WSW,249,0.0,2.0,82,0.00,,CLR,0.00,0.00,VWS V14.01,2013-04-08 04:30:00,
2013-04-08 00:35:00,43.3,38.5,30.00,WSW,249,0.0,2.0,83,0.00,,CLR,0.00,0.00,VWS V14.01,2013-04-08 04:35:00,
2013-04-08 00:40:00,43.1,38.3,30.00,WSW,249,0.0,2.0,83,0.00,,CLR,0.00,0.00,VWS V14.01,2013-04-08 04:40:00,
2013-04-08 00:45:00,43.1,38.6,30.00,WSW,249,0.0,1.0,84,0.00,,CLR,0.00,0.00,VWS V14.01,2013-04-08 04:45:00,
2013-04-08 00:50:00,43.0,38.5,30.00,WSW,249,0.0,1.0,84,0.00,,CLR,0.00,0.00,VWS V14.01,2013-04-08 04:50:00,
2013-04-08 00:55:00,42.9,38.4,30.00,WSW,249,0.0,2.0,84,0.00,,CLR,0.00,0.00,VWS V14.01,2013-04-08 04:55:00,
2013-04-08 01:00:00,42.9,38.4,30.00,WSW,249,0.0,0.0,84,0.00,,CLR,0.00,0.00,VWS V14.01,2013-04-08 05:00:00,
2013-04-08 01:05:00,42.9,38.7,30.00,WSW,249,0.0,1.0,85,0.00,,SCT110,0.00,0.00,VWS V14.01,2013-04-08 05:05:00,
2013-04-08 01:10:00,42.8,38.6,30.00,WSW,249,0.0,0.0,85,0.00,,SCT110,0.00,0.00,VWS V14.01,2013-04-08 05:10:00,
2013-04-08 01:15:00,42.7,38.5,30.00,WSW,249,0.0,0.0,85,0.00,,SCT110,0.00,0.00,VWS V14.01,2013-04-08 05:15:00,
2013-04-08 01:20:00,42.7,38.8,30.00,WSW,249,0.0,0.0,86,0.00,,,0.00,0.00,VWS V14.01,2013-04-08 05:20:00,
2013-04-08 01:25:00,42.7,38.8,29.99,WSW,249,0.0,3.0,86,0.00,,,0.00,0.00,VWS V14.01,2013-04-08 05:25:00,
2013-04-08 01:30:00,42.7,38.8,29.99,WSW,249,1.0,1.0,86,0.00,,,0.00,0.00,VWS V14.01,2013-04-08 05:30:00,
2013-04-08 01:35:00,42.6,38.7,29.99,WSW,249,0.0,1.0,86,0.00,,SCT110,0.00,0.00,VWS V14.01,2013-04-08 05:35:00,
2013-04-08 01:40:00,42.6,39.0,29.99,WSW,249,0.0,0.0,87,0.00,,SCT110,0.00,0.00,VWS V14.01,2013-04-08 05:40:00,
2013-04-08 01:45:00,42.5,38.9,29.99,WSW,249,0.0,1.0,87,0.00,,SCT110,0.00,0.00,VWS V14.01,2013-04-08 05:45:00,
2013-04-08 01:50:00,42.4,38.8,29.99,WSW,249,0.0,0.0,87,0.00,,SCT110,0.00,0.00,VWS V14.01,2013-04-08 05:50:00,
2013-04-08 01:55:00,42.2,38.6,29.99,WSW,249,0.0,1.0,87,0.00,,SCT110,0.00,0.00,VWS V14.01,2013-04-08 05:55:00,
2013-04-08 02:00:00,42.1,38.8,29.98,WSW,249,0.0,0.0,88,0.00,,SCT110,0.00,0.00,VWS V14.01,2013-04-08 06:00:00,
2013-04-08 02:05:00,42.2,38.9,29.98,WSW,249,0.0,2.0,88,0.00,,CLR,0.00,0.00,VWS V14.01,2013-04-08 06:05:00,
2013-04-08 02:10:00,42.1,38.8,29.98,WSW,249,0.0,0.0,88,0.00,,CLR,0.00,0.00,VWS V14.01,2013-04-08 06:10:00,
2013-04-08 02:15:00,42.0,38.7,29.98,WSW,249,0.0,1.0,88,0.00,,CLR,0.00,0.00,VWS V14.01,2013-04-08 06:15:00,
2013-04-08 02:20:00,41.9,38.9,29.98,WSW,249,0.0,0.0,89,0.00,,CLR,0.00,0.00,VWS V14.01,2013-04-08 06:20:00,
2013-04-08 02:25:00,41.9,38.9,29.98,WSW,249,0.0,1.0,89,0.00,,CLR,0.00,0.00,VWS V14.01,2013-04-08 06:25:00,
2013-04-08 02:30:00,41.9,38.9,29.97,WSW,249,0.0,1.0,89,0.00,,CLR,0.00,0.00,VWS V14.01,2013-04-08 06:30:00,
2013-04-08 02:35:00,41.8,38.8,29.97,WSW,249,0.0,1.0,89,0.00,,CLR,0.00,0.00,VWS V14.01,2013-04-08 06:35:00,
2013-04-08 02:40:00,41.7,38.7,29.97,WSW,249,0.0,0.0,89,0.00,,CLR,0.00,0.00,VWS V14.01,2013-04-08 06:40:00,
2013-04-08 02:45:00,41.5,38.8,29.97,WSW,249,0.0,0.0,90,0.00,,CLR,0.00,0.00,VWS V14.01,2013-04-08 06:45:00,
2013-04-08 02:51:00,41.5,38.8,29.97,WSW,249,0.0,0.0,90,0.00,,CLR,0.00,0.00,VWS V14.01,2013-04-08 06:51:00,
2013-04-08 02:56:00,41.3,38.6,29.97,WSW,249,0.0,0.0,90,0.00,,CLR,0.00,0.00,VWS V14.01,2013-04-08 06:56:00,
2013-04-08 03:01:00,41.4,39.0,29.97,WSW,249,0.0,0.0,91,0.00,,CLR,0.00,0.00,VWS V14.01,2013-04-08 07:01:00,
2013-04-08 03:06:00,41.3,38.6,29.97,WSW,249,0.0,2.0,90,0.00,,CLR,0.00,0.00,VWS V14.01,2013-04-08 07:06:00,
2013-04-08 03:11:00,41.3,38.9,29.97,WSW,257,0.0,0.0,91,0.00,,CLR,0.00,0.00,VWS V14.01,2013-04-08 07:11:00,
2013-04-08 03:16:00,41.3,38.9,29.97,WSW,257,0.0,1.0,91,0.00,,CLR,0.00,0.00,VWS V14.01,2013-04-08 07:16:00,
2013-04-08 03:21:00,41.1,38.7,29.97,WSW,257,0.0,0.0,91,0.00,,CLR,0.00,0.00,VWS V14.01,2013-04-08 07:21:00,
2013-04-08 03:27:00,41.1,38.7,29.96,WSW,257,0.0,1.0,91,0.00,,CLR,0.00,0.00,VWS V14.01,2013-04-08 07:27:00,
2013-04-08 03:32:00,40.9,38.5,29.96,WSW,257,0.0,2.0,91,0.00,,CLR,0.00,0.00,VWS V14.01,2013-04-08 07:32:00,
2013-04-08 03:37:00,40.8,38.4,29.96,WSW,257,0.0,2.0,91,0.00,,CLR,0.00,0.00,VWS V14.01,2013-04-08 07:37:00,
2013-04-08 03:42:00,40.6,38.5,29.96,WSW,257,0.0,0.0,92,0.00,,CLR,0.00,0.00,VWS V14.01,2013-04-08 07:42:00,
2013-04-08 03:47:00,40.5,38.4,29.96,WSW,250,0.0,2.0,92,0.00,,CLR,0.00,0.00,VWS V14.01,2013-04-08 07:47:00,
2013-04-08 03:52:00,40.5,38.4,29.97,WSW,250,0.0,0.0,92,0.00,,CLR,0.00,0.00,VWS V14.01,2013-04-08 07:52:00,
2013-04-08 03:57:00,40.4,38.3,29.97,WSW,250,0.0,0.0,92,0.00,,CLR,0.00,0.00,VWS V14.01,2013-04-08 07:57:00,
2013-04-08 04:02:00,40.5,38.6,29.97,SW,231,1.0,1.0,93,0.00,,CLR,0.00,0.00,VWS V14.01,2013-04-08 08:02:00,
2013-04-08 04:07:00,40.4,38.5,29.96,SW,231,0.0,3.0,93,0.00,,CLR,0.00,0.00,VWS V14.01,2013-04-08 08:07:00,
2013-04-08 04:12:00,40.5,38.6,29.97,SW,231,0.0,0.0,93,0.00,,CLR,0.00,0.00,VWS V14.01,2013-04-08 08:12:00,
2013-04-08 04:17:00,40.5,38.6,29.97,SW,231,0.0,2.0,93,0.00,,CLR,0.00,0.00,VWS V14.01,2013-04-08 08:17:00,
2013-04-08 04:22:00,40.4,38.5,29.97,SW,231,0.0,0.0,93,0.00,,CLR,0.00,0.00,VWS V14.01,2013-04-08 08:22:00,
2013-04-08 04:27:00,40.4,38.5,29.97,SW,231,0.0,0.0,93,0.00,,CLR,0.00,0.00,VWS V14.01,2013-04-08 08:27:00,
2013-04-08 04:32:00,40.3,38.4,29.97,SW,231,0.0,0.0,93,0.00,,CLR,0.00,0.00,VWS V14.01,2013-04-08 08:32:00,
2013-04-08 04:37:00,40.1,38.2,29.97,SW,231,0.0,0.0,93,0.00,,CLR,0.00,0.00,VWS V14.01,2013-04-08 08:37:00,
2013-04-08 04:42:00,40.1,38.2,29.97,SW,231,0.0,0.0,93,0.00,,CLR,0.00,0.00,VWS V14.01,2013-04-08 08:42:00,
2013-04-08 04:47:00,40.1,38.5,29.98,SW,231,0.0,0.0,94,0.00,,CLR,0.00,0.00,VWS V14.01,2013-04-08 08:47:00,
2013-04-08 04:52:00,40.4,38.8,29.97,SW,231,0.0,0.0,94,0.00,,CLR,0.00,0.00,VWS V14.01,2013-04-08 08:52:00,
2013-04-08 04:57:00,40.4,38.8,29.98,SW,231,0.0,0.0,94,0.00,,CLR,0.00,0.00,VWS V14.01,2013-04-08 08:57:00,
2013-04-08 05:02:00,40.4,38.8,29.98,SW,231,0.0,0.0,94,0.00,,CLR,0.00,0.00,VWS V14.01,2013-04-08 09:02:00,
2013-04-08 05:07:00,40.3,38.7,29.98,SW,231,0.0,0.0,94,0.00,,CLR,0.00,0.00,VWS V14.01,2013-04-08 09:07:00,
2013-04-08 05:12:00,40.2,38.6,29.98,SW,231,0.0,0.0,94,0.00,,CLR,0.00,0.00,VWS V14.01,2013-04-08 09:12:00,
2013-04-08 05:17:00,40.1,38.5,29.98,SW,231,0.0,0.0,94,0.00,,CLR,0.00,0.00,VWS V14.01,2013-04-08 09:17:00,
2013-04-08 05:22:00,40.1,38.5,29.98,SW,231,0.0,0.0,94,0.00,,CLR,0.00,0.00,VWS V14.01,2013-04-08 09:22:00,
2013-04-08 05:27:00,40.1,38.5,29.98,SW,231,0.0,0.0,94,0.00,,CLR,0.00,0.00,VWS V14.01,2013-04-08 09:27:00,
2013-04-08 05:32:00,40.1,38.8,29.97,SW,231,0.0,0.0,95,0.00,,CLR,0.00,0.00,VWS V14.01,2013-04-08 09:32:00,
2013-04-08 05:37:00,40.1,38.8,29.98,SW,231,0.0,1.0,95,0.00,,CLR,0.00,0.00,VWS V14.01,2013-04-08 09:37:00,
2013-04-08 05:42:00,40.1,38.8,29.97,SW,231,0.0,0.0,95,0.00,,CLR,0.00,0.00,VWS V14.01,2013-04-08 09:42:00,
2013-04-08 05:48:00,40.1,38.8,29.98,SW,231,0.0,0.0,95,0.00,,CLR,0.00,0.00,VWS V14.01,2013-04-08 09:48:00,
2013-04-08 05:52:00,40.0,38.7,29.98,SW,231,0.0,0.0,95,0.00,,CLR,0.00,0.00,VWS V14.01,2013-04-08 09:52:00,
2013-04-08 05:58:00,40.1,38.8,29.98,SW,231,0.0,0.0,95,0.00,,CLR,0.00,0.00,VWS V14.01,2013-04-08 09:58:00,
2013-04-08 06:03:00,40.0,38.7,29.98,SW,231,0.0,0.0,95,0.00,,CLR,0.00,0.00,VWS V14.01,2013-04-08 10:03:00,
2013-04-08 06:08:00,40.1,38.8,29.98,SW,231,0.0,0.0,95,0.00,,CLR,0.00,0.00,VWS V14.01,2013-04-08 10:08:00,
2013-04-08 06:13:00,40.1,38.8,29.98,SW,231,0.0,0.0,95,0.00,,CLR,0.00,0.00,VWS V14.01,2013-04-08 10:13:00,
2013-04-08 06:18:00,40.0,38.7,29.99,SW,231,0.0,0.0,95,0.00,,CLR,0.00,7.00,VWS V14.01,2013-04-08 10:18:00,
2013-04-08 06:23:00,39.9,38.6,29.99,SW,231,0.0,0.0,95,0.00,,CLR,0.00,11.00,VWS V14.01,2013-04-08 10:23:00,
2013-04-08 06:28:00,39.8,38.5,29.99,SW,231,0.0,0.0,95,0.00,,CLR,0.00,14.00,VWS V14.01,2013-04-08 10:28:00,
2013-04-08 06:33:00,39.8,38.5,29.99,SW,231,0.0,0.0,95,0.00,,CLR,0.00,21.00,VWS V14.01,2013-04-08 10:33:00,
2013-04-08 06:38:00,39.8,38.5,29.99,SW,231,0.0,0.0,95,0.00,,CLR,0.00,26.00,VWS V14.01,2013-04-08 10:38:00,
2013-04-08 06:43:00,39.8,38.5,29.99,SW,231,0.0,0.0,95,0.00,,CLR,0.00,33.00,VWS V14.01,2013-04-08 10:43:00,
2013-04-08 06:48:00,39.9,38.6,30.00,SW,231,0.0,0.0,95,0.00,,CLR,0.00,40.00,VWS V14.01,2013-04-08 10:48:00,
2013-04-08 06:53:00,40.0,38.7,30.00,SW,231,0.0,0.0,95,0.00,,CLR,0.00,53.00,VWS V14.01,2013-04-08 10:53:00,
2013-04-08 06:58:00,40.2,39.2,30.00,SW,231,0.0,0.0,96,0.00,,CLR,0.00,62.00,VWS V14.01,2013-04-08 10:58:00,
2013-04-08 07:03:00,40.4,39.3,30.00,SW,231,0.0,0.0,96,0.00,,CLR,0.00,74.00,VWS V14.01,2013-04-08 11:03:00,
2013-04-08 07:08:00,40.7,39.7,30.01,SW,231,0.0,0.0,96,0.00,,CLR,0.00,105.00,VWS V14.01,2013-04-08 11:08:00,
2013-04-08 07:13:00,41.1,40.0,30.01,SW,231,0.0,2.0,96,0.00,,CLR,0.00,137.00,VWS V14.01,2013-04-08 11:13:00,
2013-04-08 07:18:00,41.5,40.5,30.01,SW,231,0.0,2.0,96,0.00,,CLR,0.00,141.00,VWS V14.01,2013-04-08 11:18:00,
2013-04-08 07:23:00,42.0,40.9,30.01,SW,231,0.0,0.0,96,0.00,,CLR,0.00,139.00,VWS V14.01,2013-04-08 11:23:00,
2013-04-08 07:28:00,42.4,41.3,30.02,SW,231,0.0,0.0,96,0.00,,CLR,0.00,142.00,VWS V14.01,2013-04-08 11:28:00,
2013-04-08 07:33:00,42.8,41.7,30.02,SW,231,0.0,2.0,96,0.00,,CLR,0.00,146.00,VWS V14.01,2013-04-08 11:33:00,
2013-04-08 07:39:00,43.1,42.0,30.02,SW,231,0.0,2.0,96,0.00,,CLR,0.00,128.00,VWS V14.01,2013-04-08 11:39:00,
2013-04-08 07:44:00,43.3,42.2,30.02,SW,231,0.0,2.0,96,0.00,,CLR,0.00,158.00,VWS V14.01,2013-04-08 11:44:00,
2013-04-08 07:49:00,43.6,42.5,30.02,WNW,290,1.0,3.0,96,0.00,,CLR,0.00,197.00,VWS V14.01,2013-04-08 11:49:00,
2013-04-08 07:54:00,43.9,42.6,30.02,WNW,290,1.0,1.0,95,0.00,,CLR,0.00,172.00,VWS V14.01,2013-04-08 11:54:00,
2013-04-08 07:59:00,44.3,42.4,30.02,NW,310,1.0,3.0,93,0.00,,CLR,0.00,139.00,VWS V14.01,2013-04-08 11:59:00,
2013-04-08 08:04:00,44.6,42.1,30.02,NW,310,0.0,2.0,91,0.00,,FEW050,0.00,127.00,VWS V14.01,2013-04-08 12:04:00,
2013-04-08 08:10:00,44.9,41.9,30.02,NNW,336,0.0,4.0,89,0.00,,FEW050,0.00,128.00,VWS V14.01,2013-04-08 12:10:00,
2013-04-08 08:15:00,45.2,41.6,30.02,NNW,336,0.0,3.0,87,0.00,,FEW050,0.00,146.00,VWS V14.01,2013-04-08 12:15:00,
2013-04-08 08:20:00,45.7,41.8,30.02,NW,304,0.0,5.0,86,0.00,,FEW050,0.00,142.00,VWS V14.01,2013-04-08 12:20:00,
2013-04-08 08:25:00,46.0,41.4,30.02,NNW,331,1.0,4.0,84,0.00,,FEW050,0.00,155.00,VWS V14.01,2013-04-08 12:25:00,
2013-04-08 08:30:00,46.3,41.4,30.01,WNW,303,0.0,4.0,83,0.00,,FEW050,0.00,155.00,VWS V14.01,2013-04-08 12:30:00,
2013-04-08 08:35:00,46.7,41.2,30.02,WSW,252,0.0,4.0,81,0.00,,FEW050,0.00,162.00,VWS V14.01,2013-04-08 12:35:00,
2013-04-08 08:40:00,47.0,41.2,30.02,NNW,337,0.0,4.0,80,0.00,,FEW050,0.00,176.00,VWS V14.01,2013-04-08 12:40:00,
2013-04-08 08:45:00,47.4,41.2,30.02,NNW,337,0.0,3.0,79,0.00,,FEW050,0.00,229.00,VWS V14.01,2013-04-08 12:45:00,
2013-04-08 08:50:00,47.8,41.3,30.02,NNW,338,0.0,3.0,78,0.00,,FEW050,0.00,299.00,VWS V14.01,2013-04-08 12:50:00,
2013-04-08 08:55:00,48.6,41.4,30.02,NE,44,0.0,9.0,76,0.00,,FEW050,0.00,387.00,VWS V14.01,2013-04-08 12:55:00,
2013-04-08 09:00:00,49.6,42.0,30.02,SW,234,0.0,9.0,75,0.00,,FEW050,0.00,345.00,VWS V14.01,2013-04-08 13:00:00,
2013-04-08 09:05:00,50.4,42.1,30.02,East,89,0.0,4.0,73,0.00,,FEW050,0.00,353.00,VWS V14.01,2013-04-08 13:05:00,
2013-04-08 09:10:00,51.0,41.6,30.02,West,266,1.0,4.0,70,0.00,,FEW050,0.00,436.00,VWS V14.01,2013-04-08 13:10:00,
2013-04-08 09:15:00,51.7,41.5,30.02,North,360,2.0,5.0,68,0.00,,FEW050,0.00,385.00,VWS V14.01,2013-04-08 13:15:00,
2013-04-08 09:20:00,51.9,40.9,30.02,NW,317,1.0,6.0,66,0.00,,FEW050,0.00,316.00,VWS V14.01,2013-04-08 13:20:00,
2013-04-08 09:25:00,52.0,40.2,30.02,SE,126,2.0,10.0,64,0.00,,FEW050,0.00,424.00,VWS V14.01,2013-04-08 13:25:00,
2013-04-08 09:30:00,52.2,40.4,30.02,NW,311,2.0,10.0,64,0.00,,FEW050,0.00,591.00,VWS V14.01,2013-04-08 13:30:00,
2013-04-08 09:35:00,52.7,40.1,30.03,NNW,327,3.0,11.0,62,0.00,,FEW050,0.00,469.00,VWS V14.01,2013-04-08 13:35:00,
2013-04-08 09:40:00,53.2,40.1,30.03,NNW,338,5.0,11.0,61,0.00,,FEW050,0.00,478.00,VWS V14.01,2013-04-08 13:40:00,
2013-04-08 09:45:00,53.4,39.9,30.03,NW,313,4.0,9.0,60,0.00,,FEW050,0.00,366.00,VWS V14.01,2013-04-08 13:45:00,
2013-04-08 09:50:00,53.3,39.8,30.03,West,279,4.0,4.0,60,0.00,,FEW050,0.00,359.00,VWS V14.01,2013-04-08 13:50:00,
2013-04-08 09:55:00,53.3,40.2,30.04,WNW,301,0.0,6.0,61,0.00,,FEW050,0.00,367.00,VWS V14.01,2013-04-08 13:55:00,
2013-04-08 10:00:00,53.2,39.7,30.04,NW,324,4.0,4.0,60,0.00,,FEW050,0.00,316.00,VWS V14.01,2013-04-08 14:00:00,
2013-04-08 10:05:00,52.9,39.0,30.05,NNW,335,2.0,7.0,59,0.00,,FEW050,0.00,285.00,VWS V14.01,2013-04-08 14:05:00,
2013-04-08 10:10:00,52.5,39.0,30.04,NW,312,2.0,2.0,60,0.00,,FEW050,0.00,290.00,VWS V14.01,2013-04-08 14:10:00,
2013-04-08 10:15:00,52.4,39.4,30.04,NNE,13,2.0,7.0,61,0.00,,FEW050,0.00,292.00,VWS V14.01,2013-04-08 14:15:00,
2013-04-08 10:20:00,52.4,38.5,30.05,NNW,343,2.0,3.0,59,0.00,,FEW050,0.00,278.00,VWS V14.01,2013-04-08 14:20:00,
2013-04-08 10:25:00,52.2,38.8,30.06,WNW,296,9.0,10.0,60,0.00,,FEW050,0.00,287.00,VWS V14.01,2013-04-08 14:25:00,
2013-04-08 10:30:00,52.3,38.4,30.06,WSW,252,1.0,1.0,59,0.00,,FEW050,0.00,295.00,VWS V14.01,2013-04-08 14:30:00,
2013-04-08 10:35:00,52.6,38.3,30.06,NW,317,0.0,6.0,58,0.00,,FEW050,0.00,352.00,VWS V14.01,2013-04-08 14:35:00,
2013-04-08 10:41:00,52.6,38.7,30.06,NW,312,0.0,1.0,59,0.00,,,0.00,380.00,VWS V14.01,2013-04-08 14:41:00,
2013-04-08 10:46:00,53.0,38.2,30.06,North,355,0.0,5.0,57,0.00,,FEW050,0.00,359.00,VWS V14.01,2013-04-08 14:46:00,
2013-04-08 10:51:00,53.1,37.8,30.07,NNW,336,1.0,4.0,56,0.00,,FEW050,0.00,420.00,VWS V14.01,2013-04-08 14:51:00,
2013-04-08 10:56:00,53.3,37.6,30.07,NW,310,9.0,9.0,55,0.00,,FEW050,0.00,471.00,VWS V14.01,2013-04-08 14:56:00,
2013-04-08 11:01:00,53.7,38.8,30.07,NNW,333,0.0,0.0,57,0.00,,FEW050,0.00,770.00,VWS V14.01,2013-04-08 15:01:00,
2013-04-08 11:06:00,54.6,38.8,30.07,East,81,3.0,9.0,55,0.00,,CLR,0.00,803.00,VWS V14.01,2013-04-08 15:06:00,
2013-04-08 11:11:00,55.4,39.0,30.07,West,279,3.0,3.0,54,0.00,,CLR,0.00,828.00,VWS V14.01,2013-04-08 15:11:00,
2013-04-08 11:16:00,56.4,39.5,30.07,NW,318,0.0,5.0,53,0.00,,CLR,0.00,756.00,VWS V14.01,2013-04-08 15:16:00,
2013-04-08 11:21:00,57.1,39.7,30.07,West,273,2.0,2.0,52,0.00,,CLR,0.00,738.00,VWS V14.01,2013-04-08 15:21:00,
2013-04-08 11:26:00,56.9,39.0,30.07,ENE,61,2.0,9.0,51,0.00,,CLR,0.00,738.00,VWS V14.01,2013-04-08 15:26:00,
2013-04-08 11:31:00,56.4,39.0,30.07,West,269,1.0,8.0,52,0.00,,CLR,0.00,904.00,VWS V14.01,2013-04-08 15:31:00,
2013-04-08 11:36:00,57.2,39.2,30.07,NNE,32,0.0,8.0,51,0.00,,CLR,0.00,902.00,VWS V14.01,2013-04-08 15:36:00,
2013-04-08 11:41:00,57.8,39.3,30.07,WNW,303,4.0,5.0,50,0.00,,,0.00,926.00,VWS V14.01,2013-04-08 15:41:00,
2013-04-08 11:46:00,58.2,39.2,30.07,ESE,103,2.0,11.0,49,0.00,,CLR,0.00,921.00,VWS V14.01,2013-04-08 15:46:00,
2013-04-08 11:51:00,58.4,39.3,30.08,NW,325,2.0,4.0,49,0.00,,CLR,0.00,921.00,VWS V14.01,2013-04-08 15:51:00,
2013-04-08 11:56:00,58.2,39.7,30.07,NNE,12,0.0,11.0,50,0.00,,CLR,0.00,919.00,VWS V14.01,2013-04-08 15:56:00,
2013-04-08 12:01:00,58.6,39.5,30.08,NNW,329,0.0,7.0,49,0.00,,CLR,0.00,925.00,VWS V14.01,2013-04-08 16:01:00,
2013-04-08 12:07:00,59.0,39.4,30.08,NE,51,3.0,7.0,48,0.00,,CLR,0.00,930.00,VWS V14.01,2013-04-08 16:07:00,
2013-04-08 12:12:00,59.3,39.1,30.08,NNW,340,1.0,9.0,47,0.00,,CLR,0.00,932.00,VWS V14.01,2013-04-08 16:12:00,
2013-04-08 12:17:00,59.8,40.1,30.08,ENE,57,1.0,9.0,48,0.00,,CLR,0.00,933.00,VWS V14.01,2013-04-08 16:17:00,
2013-04-08 12:22:00,59.3,39.1,30.08,West,275,3.0,4.0,47,0.00,,CLR,0.00,937.00,VWS V14.01,2013-04-08 16:22:00,
2013-04-08 12:27:00,59.0,39.4,30.08,NW,322,4.0,8.0,48,0.00,,CLR,0.00,935.00,VWS V14.01,2013-04-08 16:27:00,
2013-04-08 12:32:00,59.1,38.9,30.07,NNW,328,1.0,6.0,47,0.00,,CLR,0.00,939.00,VWS V14.01,2013-04-08 16:32:00,
2013-04-08 12:37:00,59.1,38.4,30.07,NNW,331,3.0,6.0,46,0.00,,CLR,0.00,939.00,VWS V14.01,2013-04-08 16:37:00,
2013-04-08 12:42:00,59.8,39.0,30.07,NNE,27,3.0,7.0,46,0.00,,CLR,0.00,935.00,VWS V14.01,2013-04-08 16:42:00,
2013-04-08 12:47:00,59.8,38.4,30.07,North,360,0.0,7.0,45,0.00,,CLR,0.00,939.00,VWS V14.01,2013-04-08 16:47:00,
2013-04-08 12:52:00,59.9,39.1,30.07,NNW,330,3.0,5.0,46,0.00,,CLR,0.00,937.00,VWS V14.01,2013-04-08 16:52:00,
2013-04-08 12:57:00,60.3,38.9,30.07,NW,321,2.0,5.0,45,0.00,,CLR,0.00,935.00,VWS V14.01,2013-04-08 16:57:00,
2013-04-08 13:02:00,60.3,38.9,30.06,NNE,30,1.0,4.0,45,0.00,,CLR,0.00,933.00,VWS V14.01,2013-04-08 17:02:00,
2013-04-08 13:07:00,60.4,39.0,30.07,NE,39,4.0,8.0,45,0.00,,CLR,0.00,928.00,VWS V14.01,2013-04-08 17:07:00,
2013-04-08 13:12:00,60.9,38.9,30.06,NNW,331,1.0,5.0,44,0.00,,CLR,0.00,926.00,VWS V14.01,2013-04-08 17:12:00,
2013-04-08 13:17:00,60.6,39.2,30.07,NNW,344,1.0,8.0,45,0.00,,CLR,0.00,925.00,VWS V14.01,2013-04-08 17:17:00,
2013-04-08 13:22:00,60.9,37.7,30.07,NNE,23,1.0,4.0,42,0.00,,CLR,0.00,918.00,VWS V14.01,2013-04-08 17:22:00,
2013-04-08 13:27:00,61.2,38.0,30.07,NNW,339,3.0,7.0,42,0.00,,CLR,0.00,914.00,VWS V14.01,2013-04-08 17:27:00,
2013-04-08 13:32:00,61.7,37.8,30.07,NW,315,0.0,9.0,41,0.00,,CLR,0.00,909.00,VWS V14.01,2013-04-08 17:32:00,
2013-04-08 13:37:00,62.4,38.4,30.07,WNW,294,0.0,9.0,41,0.00,,CLR,0.00,905.00,VWS V14.01,2013-04-08 17:37:00,
2013-04-08 13:42:00,62.4,38.4,30.07,SW,232,1.0,5.0,41,0.00,,CLR,0.00,904.00,VWS V14.01,2013-04-08 17:42:00,
2013-04-08 13:47:00,62.6,39.2,30.07,WSW,249,2.0,9.0,42,0.00,,CLR,0.00,896.00,VWS V14.01,2013-04-08 17:47:00,
2013-04-08 13:52:00,62.9,40.7,30.07,North,360,2.0,4.0,44,0.00,,CLR,0.00,889.00,VWS V14.01,2013-04-08 17:52:00,
2013-04-08 13:57:00,62.9,38.9,30.07,NNE,23,0.0,5.0,41,0.00,,CLR,0.00,881.00,VWS V14.01,2013-04-08 17:57:00,
2013-04-08 14:02:00,62.6,38.0,30.07,NE,51,2.0,6.0,40,0.00,,CLR,0.00,875.00,VWS V14.01,2013-04-08 18:02:00,
2013-04-08 14:07:00,61.9,38.6,30.07,NNW,331,5.0,9.0,42,0.00,,CLR,0.00,867.00,VWS V14.01,2013-04-08 18:07:00,
2013-04-08 14:13:00,62.2,38.2,30.06,NNW,342,5.0,6.0,41,0.00,,CLR,0.00,858.00,VWS V14.01,2013-04-08 18:13:00,
2013-04-08 14:18:00,62.6,39.2,30.07,NNW,333,5.0,6.0,42,0.00,,CLR,0.00,849.00,VWS V14.01,2013-04-08 18:18:00,
2013-04-08 14:23:00,63.2,38.5,30.07,NE,38,2.0,4.0,40,0.00,,CLR,0.00,840.00,VWS V14.01,2013-04-08 18:23:00,
2013-04-08 14:28:00,62.6,38.6,30.07,North,350,0.0,7.0,41,0.00,,CLR,0.00,833.00,VWS V14.01,2013-04-08 18:28:00,
2013-04-08 14:33:00,62.4,37.8,30.06,SSW,213,1.0,4.0,40,0.00,,CLR,0.00,823.00,VWS V14.01,2013-04-08 18:33:00,
2013-04-08 14:38:00,63.1,38.4,30.06,NNE,33,3.0,4.0,40,0.00,,CLR,0.00,817.00,VWS V14.01,2013-04-08 18:38:00,
2013-04-08 14:43:00,63.8,39.7,30.06,NNW,329,1.0,8.0,41,0.00,,CLR,0.00,803.00,VWS V14.01,2013-04-08 18:43:00,
2013-04-08 14:48:00,64.4,38.9,30.06,NE,51,5.0,8.0,39,0.00,,CLR,0.00,791.00,VWS V14.01,2013-04-08 18:48:00,
2013-04-08 14:53:00,63.7,39.6,30.06,North,355,0.0,7.0,41,0.00,,CLR,0.00,777.00,VWS V14.01,2013-04-08 18:53:00,
2013-04-08 14:58:00,64.1,38.0,30.06,NW,311,0.0,7.0,38,0.00,,CLR,0.00,766.00,VWS V14.01,2013-04-08 18:58:00,
2013-04-08 15:03:00,64.3,38.2,30.05,WSW,256,3.0,6.0,38,0.00,,CLR,0.00,758.00,VWS V14.01,2013-04-08 19:03:00,
2013-04-08 15:08:00,64.7,38.5,30.05,WSW,256,0.0,6.0,38,0.00,,CLR,0.00,745.00,VWS V14.01,2013-04-08 19:08:00,
2013-04-08 15:13:00,65.0,38.8,30.05,SSW,207,2.0,4.0,38,0.00,,CLR,0.00,733.00,VWS V14.01,2013-04-08 19:13:00,
2013-04-08 15:18:00,65.5,39.2,30.05,WSW,246,0.0,5.0,38,0.00,,CLR,0.00,721.00,VWS V14.01,2013-04-08 19:18:00,
2013-04-08 15:23:00,65.7,38.7,30.05,NNW,338,3.0,6.0,37,0.00,,CLR,0.00,710.00,VWS V14.01,2013-04-08 19:23:00,
2013-04-08 15:28:00,65.7,38.0,30.05,WNW,297,1.0,6.0,36,0.00,,CLR,0.00,694.00,VWS V14.01,2013-04-08 19:28:00,
2013-04-08 15:33:00,65.9,37.5,30.05,WSW,250,1.0,5.0,35,0.00,,CLR,0.00,680.00,VWS V14.01,2013-04-08 19:33:00,
2013-04-08 15:38:00,66.0,38.3,30.05,SSW,194,0.0,5.0,36,0.00,,CLR,0.00,671.00,VWS V14.01,2013-04-08 19:38:00,
2013-04-08 15:43:00,66.1,38.4,30.05,SSW,194,0.0,2.0,36,0.00,,CLR,0.00,657.00,VWS V14.01,2013-04-08 19:43:00,
2013-04-08 15:48:00,66.5,38.0,30.05,NW,307,2.0,6.0,35,0.00,,CLR,0.00,640.00,VWS V14.01,2013-04-08 19:48:00,
2013-04-08 15:53:00,66.6,38.8,30.05,NNW,344,1.0,6.0,36,0.00,,CLR,0.00,624.00,VWS V14.01,2013-04-08 19:53:00,
2013-04-08 15:58:00,66.4,38.7,30.05,NW,318,3.0,6.0,36,0.00,,CLR,0.00,610.00,VWS V14.01,2013-04-08 19:58:00,
2013-04-08 16:03:00,66.0,37.6,30.05,NNW,344,4.0,6.0,35,0.00,,CLR,0.00,589.00,VWS V14.01,2013-04-08 20:03:00,
2013-04-08 16:08:00,65.6,38.0,30.05,NNW,327,0.0,6.0,36,0.00,,CLR,0.00,577.00,VWS V14.01,2013-04-08 20:08:00,
2013-04-08 16:13:00,65.6,38.0,30.05,ENE,59,0.0,5.0,36,0.00,,CLR,0.00,557.00,VWS V14.01,2013-04-08 20:13:00,
2013-04-08 16:18:00,65.0,37.4,30.05,NE,46,2.0,5.0,36,0.00,,CLR,0.00,545.00,VWS V14.01,2013-04-08 20:18:00,
2013-04-08 16:23:00,64.9,38.0,30.05,East,89,1.0,3.0,37,0.00,,CLR,0.00,534.00,VWS V14.01,2013-04-08 20:23:00,
2013-04-08 16:28:00,64.9,37.3,30.04,NE,52,0.0,4.0,36,0.00,,CLR,0.00,309.00,VWS V14.01,2013-04-08 20:28:00,
2013-04-08 16:33:00,64.8,37.2,30.04,North,360,1.0,4.0,36,0.00,,CLR,0.00,466.00,VWS V14.01,2013-04-08 20:33:00,
2013-04-08 16:38:00,65.0,37.4,30.04,NNW,328,4.0,6.0,36,0.00,,CLR,0.00,401.00,VWS V14.01,2013-04-08 20:38:00,
2013-04-08 16:43:00,64.6,37.1,30.05,NE,37,0.0,2.0,36,0.00,,CLR,0.00,281.00,VWS V14.01,2013-04-08 20:43:00,
2013-04-08 16:48:00,64.6,36.3,30.05,West,266,0.0,3.0,35,0.00,,CLR,0.00,325.00,VWS V14.01,2013-04-08 20:48:00,
2013-04-08 16:53:00,64.8,36.5,30.04,West,267,0.0,1.0,35,0.00,,CLR,0.00,306.00,VWS V14.01,2013-04-08 20:53:00,
2013-04-08 16:59:00,65.1,36.8,30.04,NNW,345,0.0,5.0,35,0.00,,CLR,0.00,236.00,VWS V14.01,2013-04-08 20:59:00,
2013-04-08 17:04:00,65.0,36.7,30.05,NNW,345,1.0,2.0,35,0.00,,CLR,0.00,309.00,VWS V14.01,2013-04-08 21:04:00,
2013-04-08 17:09:00,64.8,35.8,30.04,NNW,345,2.0,2.0,34,0.00,,CLR,0.00,353.00,VWS V14.01,2013-04-08 21:09:00,
2013-04-08 17:14:00,64.5,37.0,30.05,WNW,299,2.0,3.0,36,0.00,,CLR,0.00,216.00,VWS V14.01,2013-04-08 21:14:00,
2013-04-08 17:19:00,64.1,36.6,30.05,NNW,344,1.0,4.0,36,0.00,,CLR,0.00,227.00,VWS V14.01,2013-04-08 21:19:00,
2013-04-08 17:24:00,64.0,36.5,30.05,NNE,21,0.0,3.0,36,0.00,,CLR,0.00,155.00,VWS V14.01,2013-04-08 21:24:00,
2013-04-08 17:29:00,63.8,35.7,30.04,East,87,0.0,3.0,35,0.00,,CLR,0.00,237.00,VWS V14.01,2013-04-08 21:29:00,
2013-04-08 17:35:00,63.9,35.7,30.04,ENE,71,2.0,3.0,35,0.00,,CLR,0.00,114.00,VWS V14.01,2013-04-08 21:35:00,
2013-04-08 17:40:00,63.6,36.9,30.04,North,350,2.0,3.0,37,0.00,,CLR,0.00,188.00,VWS V14.01,2013-04-08 21:40:00,
2013-04-08 17:45:00,63.3,36.6,30.04,North,350,0.0,1.0,37,0.00,,CLR,0.00,142.00,VWS V14.01,2013-04-08 21:45:00,
2013-04-08 17:50:00,63.1,35.7,30.04,North,350,0.0,1.0,36,0.00,,CLR,0.00,125.00,VWS V14.01,2013-04-08 21:50:00,
2013-04-08 17:55:00,62.9,35.6,30.04,North,350,0.0,0.0,36,0.00,,CLR,0.00,54.00,VWS V14.01,2013-04-08 21:55:00,
2013-04-08 18:00:00,62.7,35.4,30.04,North,350,0.0,1.0,36,0.00,,CLR,0.00,44.00,VWS V14.01,2013-04-08 22:00:00,
2013-04-08 18:05:00,62.5,35.9,30.04,North,350,0.0,0.0,37,0.00,,CLR,0.00,40.00,VWS V14.01,2013-04-08 22:05:00,
2013-04-08 18:10:00,62.3,36.4,30.04,North,350,0.0,0.0,38,0.00,,CLR,0.00,39.00,VWS V14.01,2013-04-08 22:10:00,
2013-04-08 18:15:00,61.9,35.4,30.04,North,351,0.0,3.0,37,0.00,,CLR,0.00,37.00,VWS V14.01,2013-04-08 22:15:00,
2013-04-08 18:20:00,61.6,35.1,30.04,North,360,0.0,3.0,37,0.00,,CLR,0.00,35.00,VWS V14.01,2013-04-08 22:20:00,
2013-04-08 18:25:00,61.4,34.9,30.05,North,360,0.0,0.0,37,0.00,,CLR,0.00,33.00,VWS V14.01,2013-04-08 22:25:00,
2013-04-08 18:30:00,61.3,35.5,30.05,North,360,0.0,0.0,38,0.00,,CLR,0.00,30.00,VWS V14.01,2013-04-08 22:30:00,
2013-04-08 18:35:00,60.9,35.1,30.06,North,360,0.0,0.0,38,0.00,,CLR,0.00,25.00,VWS V14.01,2013-04-08 22:35:00,
2013-04-08 18:40:00,60.6,36.2,30.06,North,360,0.0,0.0,40,0.00,,CLR,0.00,19.00,VWS V14.01,2013-04-08 22:40:00,
2013-04-08 18:45:00,60.2,35.2,30.06,North,360,0.0,0.0,39,0.00,,CLR,0.00,16.00,VWS V14.01,2013-04-08 22:45:00,
2013-04-08 18:50:00,59.8,34.8,30.06,North,360,0.0,0.0,39,0.00,,CLR,0.00,14.00,VWS V14.01,2013-04-08 22:50:00,
2013-04-08 18:55:00,59.4,35.1,30.06,North,360,0.0,0.0,40,0.00,,CLR,0.00,12.00,VWS V14.01,2013-04-08 22:55:00,
2013-04-08 19:00:00,59.0,34.7,30.07,North,360,0.0,0.0,40,0.00,,CLR,0.00,11.00,VWS V14.01,2013-04-08 23:00:00,
2013-04-08 19:06:00,58.6,34.4,30.07,North,360,0.0,0.0,40,0.00,,CLR,0.00,7.00,VWS V14.01,2013-04-08 23:06:00,
2013-04-08 19:11:00,58.2,35.2,30.06,North,360,0.0,0.0,42,0.00,,CLR,0.00,5.00,VWS V14.01,2013-04-08 23:11:00,
2013-04-08 19:17:00,57.8,34.9,30.07,North,360,0.0,2.0,42,0.00,,CLR,0.00,0.00,VWS V14.01,2013-04-08 23:17:00,
2013-04-08 19:22:00,57.5,34.6,30.07,North,360,0.0,0.0,42,0.00,,CLR,0.00,0.00,VWS V14.01,2013-04-08 23:22:00,
2013-04-08 19:27:00,57.2,34.3,30.07,North,360,0.0,0.0,42,0.00,,CLR,0.00,0.00,VWS V14.01,2013-04-08 23:27:00,
2013-04-08 19:32:00,56.8,35.7,30.08,North,360,0.0,1.0,45,0.00,,CLR,0.00,0.00,VWS V14.01,2013-04-08 23:32:00,
2013-04-08 19:37:00,56.0,37.1,30.08,North,360,0.0,1.0,49,0.00,,CLR,0.00,0.00,VWS V14.01,2013-04-08 23:37:00,
2013-04-08 19:43:00,55.3,38.5,30.08,SSW,207,0.0,6.0,53,0.00,,CLR,0.00,0.00,VWS V14.01,2013-04-08 23:43:00,
2013-04-08 19:48:00,54.6,38.3,30.08,South,185,1.0,9.0,54,0.00,,CLR,0.00,0.00,VWS V14.01,2013-04-08 23:48:00,
2013-04-08 19:53:00,54.1,38.8,30.08,South,185,0.0,0.0,56,0.00,,CLR,0.00,0.00,VWS V14.01,2013-04-08 23:53:00,
2013-04-08 19:58:00,53.6,38.8,30.08,South,184,1.0,4.0,57,0.00,,CLR,0.00,0.00,VWS V14.01,2013-04-08 23:58:00,
2013-04-08 20:03:00,53.0,38.6,30.09,SSW,196,6.0,6.0,58,0.00,,CLR,0.00,0.00,VWS V14.01,2013-04-09 00:03:00,
2013-04-08 20:08:00,52.5,38.2,30.09,SSW,194,0.0,6.0,58,0.00,,CLR,0.00,0.00,VWS V14.01,2013-04-09 00:08:00,
2013-04-08 20:13:00,52.1,37.8,30.09,South,187,0.0,2.0,58,0.00,,CLR,0.00,0.00,VWS V14.01,2013-04-09 00:13:00,
2013-04-08 20:18:00,51.6,37.8,30.09,East,86,0.0,2.0,59,0.00,,CLR,0.00,0.00,VWS V14.01,2013-04-09 00:18:00,
2013-04-08 20:23:00,51.3,37.9,30.09,East,87,1.0,1.0,60,0.00,,CLR,0.00,0.00,VWS V14.01,2013-04-09 00:23:00,
2013-04-08 20:28:00,50.9,37.5,30.08,East,86,0.0,4.0,60,0.00,,CLR,0.00,0.00,VWS V14.01,2013-04-09 00:28:00,
2013-04-08 20:33:00,50.7,37.8,30.09,East,86,0.0,0.0,61,0.00,,CLR,0.00,0.00,VWS V14.01,2013-04-09 00:33:00,
2013-04-08 20:38:00,50.4,37.5,30.09,East,86,0.0,3.0,61,0.00,,CLR,0.00,0.00,VWS V14.01,2013-04-09 00:38:00,
2013-04-08 20:43:00,50.2,37.7,30.10,NE,51,2.0,3.0,62,0.00,,CLR,0.00,0.00,VWS V14.01,2013-04-09 00:43:00,
2013-04-08 20:48:00,50.1,37.6,30.10,NE,51,0.0,3.0,62,0.00,,CLR,0.00,0.00,VWS V14.01,2013-04-09 00:48:00,
2013-04-08 20:53:00,50.0,37.5,30.10,NE,51,0.0,1.0,62,0.00,,CLR,0.00,0.00,VWS V14.01,2013-04-09 00:53:00,
2013-04-08 20:58:00,49.9,37.4,30.10,NE,51,0.0,1.0,62,0.00,,CLR,0.00,0.00,VWS V14.01,2013-04-09 00:58:00,
2013-04-08 21:03:00,49.6,37.5,30.10,NE,51,0.0,0.0,63,0.00,,CLR,0.00,0.00,VWS V14.01,2013-04-09 01:03:00,
2013-04-08 21:08:00,49.3,37.2,30.11,NE,51,0.0,0.0,63,0.00,,CLR,0.00,0.00,VWS V14.01,2013-04-09 01:08:00,
2013-04-08 21:13:00,49.0,37.4,30.11,NE,51,0.0,0.0,64,0.00,,CLR,0.00,0.00,VWS V14.01,2013-04-09 01:13:00,
2013-04-08 21:18:00,48.8,37.2,30.11,NE,51,0.0,0.0,64,0.00,,CLR,0.00,0.00,VWS V14.01,2013-04-09 01:18:00,
2013-04-08 21:23:00,48.6,37.4,30.11,NE,51,0.0,0.0,65,0.00,,CLR,0.00,0.00,VWS V14.01,2013-04-09 01:23:00,
2013-04-08 21:28:00,48.4,37.2,30.11,NE,51,0.0,0.0,65,0.00,,CLR,0.00,0.00,VWS V14.01,2013-04-09 01:28:00,
2013-04-08 21:33:00,48.3,37.5,30.11,NE,51,0.0,0.0,66,0.00,,CLR,0.00,0.00,VWS V14.01,2013-04-09 01:33:00,
2013-04-08 21:38:00,48.3,37.5,30.11,NE,51,0.0,0.0,66,0.00,,CLR,0.00,0.00,VWS V14.01,2013-04-09 01:38:00,
2013-04-08 21:43:00,48.4,37.6,30.11,NE,51,0.0,1.0,66,0.00,,CLR,0.00,0.00,VWS V14.01,2013-04-09 01:43:00,
2013-04-08 21:48:00,48.5,37.7,30.10,NE,51,0.0,1.0,66,0.00,,CLR,0.00,0.00,VWS V14.01,2013-04-09 01:48:00,
2013-04-08 21:53:00,48.5,37.7,30.10,NE,51,0.0,0.0,66,0.00,,CLR,0.00,0.00,VWS V14.01,2013-04-09 01:53:00,
2013-04-08 21:58:00,48.5,37.7,30.10,NE,51,0.0,1.0,66,0.00,,CLR,0.00,0.00,VWS V14.01,2013-04-09 01:58:00,
2013-04-08 22:03:00,48.4,37.6,30.10,NE,51,0.0,2.0,66,0.00,,CLR,0.00,0.00,VWS V14.01,2013-04-09 02:03:00,
2013-04-08 22:08:00,48.4,38.0,30.10,NE,51,0.0,2.0,67,0.00,,CLR,0.00,0.00,VWS V14.01,2013-04-09 02:08:00,
2013-04-08 22:13:00,48.3,37.9,30.11,NE,51,0.0,0.0,67,0.00,,CLR,0.00,0.00,VWS V14.01,2013-04-09 02:13:00,
2013-04-08 22:19:00,48.2,37.8,30.11,SSW,204,2.0,3.0,67,0.00,,CLR,0.00,0.00,VWS V14.01,2013-04-09 02:19:00,
2013-04-08 22:24:00,48.2,38.2,30.10,SSW,204,0.0,1.0,68,0.00,,CLR,0.00,0.00,VWS V14.01,2013-04-09 02:24:00,
2013-04-08 22:29:00,48.2,38.2,30.10,SSW,203,0.0,1.0,68,0.00,,CLR,0.00,0.00,VWS V14.01,2013-04-09 02:29:00,
2013-04-08 22:34:00,48.2,38.5,30.10,SSW,203,0.0,0.0,69,0.00,,CLR,0.00,0.00,VWS V14.01,2013-04-09 02:34:00,
2013-04-08 22:39:00,48.2,38.5,30.10,SSW,197,0.0,3.0,69,0.00,,CLR,0.00,0.00,VWS V14.01,2013-04-09 02:39:00,
2013-04-08 22:44:00,48.2,38.5,30.11,South,183,1.0,3.0,69,0.00,,CLR,0.00,0.00,VWS V14.01,2013-04-09 02:44:00,
2013-04-08 22:49:00,48.2,38.5,30.10,South,183,0.0,3.0,69,0.00,,CLR,0.00,0.00,VWS V14.01,2013-04-09 02:49:00,
2013-04-08 22:54:00,48.2,38.5,30.10,South,183,0.0,0.0,69,0.00,,CLR,0.00,0.00,VWS V14.01,2013-04-09 02:54:00,
2013-04-08 22:59:00,48.2,38.5,30.10,South,183,0.0,0.0,69,0.00,,CLR,0.00,0.00,VWS V14.01,2013-04-09 02:59:00,
2013-04-08 23:04:00,48.2,38.9,30.09,South,183,0.0,0.0,70,0.00,,SCT100,0.00,0.00,VWS V14.01,2013-04-09 03:04:00,
2013-04-08 23:09:00,48.2,38.9,30.09,South,183,0.0,1.0,70,0.00,,SCT100,0.00,0.00,VWS V14.01,2013-04-09 03:09:00,
2013-04-08 23:15:00,48.2,39.2,30.10,South,184,0.0,3.0,71,0.00,,SCT100,0.00,0.00,VWS V14.01,2013-04-09 03:15:00,
2013-04-08 23:20:00,48.1,39.2,30.09,SSW,203,1.0,3.0,71,0.00,,SCT100,0.00,0.00,VWS V14.01,2013-04-09 03:20:00,
2013-04-08 23:25:00,48.1,39.2,30.09,SSW,203,1.0,1.0,71,0.00,,SCT100,0.00,0.00,VWS V14.01,2013-04-09 03:25:00,
2013-04-08 23:30:00,48.2,39.2,30.09,SSW,203,0.0,3.0,71,0.00,,SCT100,0.00,0.00,VWS V14.01,2013-04-09 03:30:00,
2013-04-08 23:35:00,48.3,39.3,30.09,SSW,203,0.0,0.0,71,0.00,,SCT100,0.00,0.00,VWS V14.01,2013-04-09 03:35:00,
2013-04-08 23:40:00,48.3,39.3,30.09,SSW,203,0.0,0.0,71,0.00,,SCT100,0.00,0.00,VWS V14.01,2013-04-09 03:40:00,
2013-04-08 23:45:00,48.2,39.2,30.09,SSW,203,0.0,1.0,71,0.00,,SCT100,0.00,0.00,VWS V14.01,2013-04-09 03:45:00,
2013-04-08 23:50:00,48.1,39.2,30.10,SSW,203,0.0,1.0,71,0.00,,SCT100,0.00,0.00,VWS V14.01,2013-04-09 03:50:00,
2013-04-08 23:55:00,48.0,39.4,30.09,SSW,203,0.0,1.0,72,0.00,,SCT100,0.00,0.00,VWS V14.01,2013-04-09 03:55:00,